sat.trackr.live / text

‹ back to catalog

STARLINK-5017

NORAD 53915 · 2022-119AF

PAYLOAD ACTIVE UNKNOWN

§ Identity

Operator
Country
US
Launch date
2022-09-24
Launch site
AFETR
Launch vehicle
Mass (kg)
RCS (m²)

Purposes: comms

External: N2YO · Heavens-Above · Gunter

§ Orbital elements

Epoch: 2026-05-25T04:00:03.998880Z

Period
90.42 min
Inclination
53.2163°
Eccentricity
0.0000795
Mean motion
15.92521922 rev/d
Perigee alt
294.7 km
Apogee alt
295.8 km
Semi-major
6,673.4 km
B*
2.0006e-3
RAAN
310.3544°
Arg perigee
1.3084°
Mean anomaly
174.4660°
Rev number
597

§ Raw data

STARLINK-50171 53915U 22119AF  26145.16671295  .00693781  20693-3  20006-2 0  99902 53915  53.2163 310.3544 0000795   1.3084 174.4660 15.92521922  5979

JSON: /api/v1/satellites/53915 · /tle

For live sub-satellite position, see the globe view (requires WebGL).

§ Visibility from observer

Set your observer location to see the next 7 days of passes ≥ 10°. The values pass through the URL so the page stays shareable.

No JS? Fill the form by hand. The geolocation button needs JavaScript.